Home   Weather   Taunton   Past weeks

Flag for United Kingdom Past Weather in Taunton, England, United Kingdom — Yesterday and Last 2 Weeks

Now
54 °F

Light rain. Cloudy.


Feels Like: 52 °F
Forecast: 55 / 67 °F
Wind: 9 mph from Southwest

Location: Dunkeswell Aerodrome

Current Time: Sep 26, 2016 at 9:56:28 AM

Latest Report: Sep 26, 2016 at 9:00 AM


Visibility: 8 mi

Pressure: 30.13 "Hg

Humidity: 97%

Dew Point: 54 °F

Location of TauntonLocation

Past Weather in Taunton — Graph

°F

Taunton Temperature Yesterday

Maximum temperature yesterday: 60 °F (at 12:00 AM)
Minimum temperature yesterday: 50 °F (at 10:00 PM)
Average temperature yesterday: 55 °F

High & Low Weather Summary for the Past Weeks

 TemperatureHumidityPressure
High71 °F (Sep 15, 3:00 PM)100% (Sep 12, 9:00 AM)30.28 "Hg (Sep 12, 9:00 AM)
Low46 °F (Sep 23, 7:00 AM)58% (Sep 22, 3:00 PM)29.73 "Hg (Sep 14, 6:00 AM)
Average58 °F88%30.02 "Hg
* Reported Sep 11 8:00 AM — Sep 26 8:00 AM, Taunton, Weather by CustomWeather, © 2016

Note: Actual official high and low records may vary slightly from our data, if they occured in-between our weather recording intervals... More about our weather records

Advertising

Taunton Weather History for the Previous 24 Hours

Scroll right to see more
 ConditionsComfort  
Time TempWeatherWind HumidityBarometerVisibility
8:00 AM
Mon, Sep 26
53 °FRain showers. Cloudy.9 mph97%30.12 "Hg7 mi
7:00 AM53 °FRain showers. Overcast.8 mph95%30.12 "Hg9 mi
6:00 AM51 °FCool.5 mph95%30.13 "Hg13 mi
5:00 AM52 °FLight rain. Overcast.12 mph96%30.14 "Hg7 mi
4:00 AM52 °FRain showers. Overcast.7 mph95%30.15 "Hg9 mi
3:00 AM51 °FCool.5 mph93%30.15 "Hg9 mi
2:00 AM52 °FCool.7 mph92%30.16 "Hg9 mi
1:00 AM51 °FCool.7 mph91%30.16 "Hg11 mi
12:00 AM51 °FCool.7 mph89%30.16 "Hg12 mi
11:00 PM
Sun, Sep 25
50 °FCool.7 mph90%30.16 "Hg11 mi
10:00 PM50 °FCool.8 mph89%30.15 "Hg10 mi
9:00 PM51 °FCool.7 mph86%30.14 "Hg12 mi
8:00 PM51 °FCool.6 mph81%30.14 "Hg14 mi
7:00 PM54 °FCool.9 mph73%30.11 "Hg17 mi
6:00 PM57 °FCool.12 mph69%30.09 "Hg13 mi
5:00 PM58 °FCool.14 mph64%30.08 "Hg15 mi
4:00 PM59 °FRefreshingly cool.15 mph59%30.06 "Hg18 mi
3:00 PM58 °FCool.13 mph64%30.05 "Hg14 mi
2:00 PM58 °FCool.10 mph70%30.03 "Hg19 mi
1:00 PM54 °FLots of rain. Cloudy.9 mph84%30.02 "Hg19 mi
12:00 PM60 °FCool.15 mph69%29.99 "Hg17 mi
11:00 AM56 °FCool.13 mph76%29.98 "Hg9 mi
10:00 AM56 °FCool.13 mph84%29.94 "Hg8 mi
Weather by CustomWeather, © 2016

See weather overviewHow to use our weather pages